Mora, MN

12:45 PM CDT on April 26, 2017 (GMT -0500)
Mora Municipal

Weather History for KJMR - December, 2012

Change the Weather History Date:

Saturday, December 22, 2012

  Actual Average Record
Temperature  
Mean Temperature 12 °F -  
Max Temperature 23 °F 24 °F 40 °F (1941)
Min Temperature 1 °F 3 °F -39 °F (1983)
Degree Days  
Heating Degree Days 53    
Moisture  
Dew Point 6 °F    
Average Humidity 77    
Maximum Humidity 92    
Minimum Humidity 58    
Precipitation  
Precipitation 0.00 in - - ()
Sea Level Pressure  
Sea Level Pressure 30.05 in    
Wind  
Wind Speed 1 mph (NNW)    
Max Wind Speed 12 mph    
Max Gust Speed 22 mph    
Visibility 10 miles    
Events      
Averages and records for this station are not official NWS values.
T = Trace of Precipitation, MM = Missing Value Source: NWS Daily Summary

Daily Weather History Graph

Daily Weather History Graph

Search for Another Location

Airport or City:

Trip Planner

Search our weather history database for the weather conditions in past years. The results will help you decide how hot, cold, wet, or windy it might be!

Date:

Astronomy

Dec. 22, 2012 Rise Set
Actual Time 7:52 AM CST 4:31 PM CST
Civil Twilight 7:17 AM CST 5:06 PM CST
Nautical Twilight 6:39 AM CST 5:44 PM CST
Astronomical Twilight 6:03 AM CST 6:20 PM CST
Moon 12:58 PM CST (12/22) 2:28 AM CST (12/22)
Length of Visible Light 9h 48m
Length of Day
8h 39m
Waxing Gibbous, 74% of the Moon is Illuminated
Dec 22
Waxing Gibbous
Dec 28
Full
Jan 4
Last Quarter
Jan 11
New
Jan 18
First Quarter

Hourly Weather History & Observations

Time (CST) Temp. Windchill Dew Point Humidity Pressure Visibility Wind Dir Wind Speed Gust Speed Precip Events Conditions
12:02 AM 5.0 °F - 1.4 °F 85% 30.18 in 10.0 mi Calm Calm - N/A   Clear
12:22 AM 5.0 °F - 1.4 °F 85% 30.18 in 10.0 mi Calm Calm - N/A   Clear
12:42 AM 3.2 °F - -0.4 °F 85% 30.18 in 10.0 mi Calm Calm - N/A   Clear
1:02 AM 1.4 °F - -0.4 °F 92% 30.17 in 10.0 mi Calm Calm - N/A   Clear
1:22 AM 3.2 °F - -0.4 °F 85% 30.16 in 10.0 mi Calm Calm - N/A   Clear
1:42 AM 1.4 °F - -2.2 °F 85% 30.15 in 10.0 mi Calm Calm - N/A   Clear
2:02 AM 1.4 °F - -2.2 °F 85% 30.15 in 10.0 mi Calm Calm - N/A   Clear
2:22 AM 1.4 °F - -2.2 °F 85% 30.14 in 10.0 mi Calm Calm - N/A   Clear
2:42 AM 1.4 °F - -2.2 °F 85% 30.14 in 10.0 mi Calm Calm - N/A   Clear
3:02 AM 1.4 °F - -2.2 °F 85% 30.14 in 10.0 mi Calm Calm - N/A   Clear
3:22 AM 1.4 °F - -4.0 °F 78% 30.14 in 10.0 mi Calm Calm - N/A   Clear
3:42 AM 1.4 °F - -4.0 °F 78% 30.12 in 10.0 mi Calm Calm - N/A   Clear
4:02 AM 1.4 °F - -4.0 °F 78% 30.11 in 10.0 mi Calm Calm - N/A   Clear
4:22 AM 1.4 °F - -4.0 °F 78% 30.10 in 10.0 mi Calm Calm - N/A   Clear
4:42 AM 1.4 °F - -2.2 °F 85% 30.10 in 10.0 mi Calm Calm - N/A   Clear
5:02 AM 1.4 °F - -4.0 °F 78% 30.08 in 10.0 mi Calm Calm - N/A   Clear
5:22 AM 1.4 °F - -4.0 °F 78% 30.07 in 10.0 mi Calm Calm - N/A   Clear
5:42 AM 3.2 °F - -0.4 °F 85% 30.06 in 10.0 mi Calm Calm - N/A   Clear
6:02 AM 5.0 °F - 1.4 °F 85% 30.06 in 10.0 mi Calm Calm - N/A   Clear
6:22 AM 6.8 °F - 3.2 °F 85% 30.05 in 10.0 mi Calm Calm - N/A   Clear
6:42 AM 5.0 °F - 1.4 °F 85% 30.04 in 10.0 mi Calm Calm - N/A   Clear
7:02 AM 6.8 °F - 3.2 °F 85% 30.04 in 10.0 mi Calm Calm - N/A   Clear
7:22 AM 6.8 °F - 3.2 °F 85% 30.04 in 10.0 mi Calm Calm - N/A   Clear
7:41 AM 6.8 °F - 3.2 °F 85% 30.03 in 10.0 mi Calm Calm - N/A   Clear
8:02 AM 6.8 °F - 3.2 °F 85% 30.04 in 10.0 mi Calm Calm - N/A   Clear
8:21 AM 6.8 °F - 3.2 °F 85% 30.03 in 10.0 mi Calm Calm - N/A   Clear
8:42 AM 6.8 °F - 3.2 °F 85% 30.03 in 10.0 mi Calm Calm - N/A   Clear
9:02 AM 8.6 °F - 3.2 °F 79% 30.03 in 10.0 mi Calm Calm - N/A   Clear
9:22 AM 10.4 °F - 5.0 °F 79% 30.03 in 10.0 mi Calm Calm - N/A   Clear
9:42 AM 10.4 °F - 5.0 °F 79% 30.04 in 10.0 mi Calm Calm - N/A   Clear
10:01 AM 10.4 °F - 5.0 °F 79% 30.04 in 10.0 mi Calm Calm - N/A   Clear
10:22 AM 10.4 °F - 6.8 °F 85% 30.05 in 10.0 mi Calm Calm - N/A   Clear
10:42 AM 12.2 °F - 8.6 °F 85% 30.04 in 10.0 mi Calm Calm - N/A   Clear
11:02 AM 14.0 °F - 8.6 °F 79% 30.02 in 10.0 mi Calm Calm - N/A   Clear
11:22 AM 15.8 °F - 8.6 °F 73% 30.02 in 10.0 mi Calm Calm - N/A   Clear
11:42 AM 17.6 °F - 8.6 °F 68% 30.01 in 10.0 mi Calm Calm - N/A   Clear
12:02 PM 17.6 °F - 8.6 °F 68% 30.00 in 10.0 mi Calm Calm - N/A   Clear
12:22 PM 19.4 °F - 8.6 °F 63% 30.00 in 10.0 mi Calm Calm - N/A   Clear
12:42 PM 19.4 °F - 8.6 °F 63% 29.99 in 10.0 mi Calm Calm - N/A   Clear
1:02 PM 19.4 °F - 8.6 °F 63% 29.97 in 10.0 mi Calm Calm - N/A   Clear
1:22 PM 21.2 °F - 8.6 °F 58% 29.97 in 10.0 mi Calm Calm - N/A   Clear
1:42 PM 21.2 °F - 10.4 °F 63% 29.98 in 10.0 mi Calm Calm - N/A   Clear
2:02 PM 23.0 °F - 10.4 °F 59% 29.97 in 10.0 mi Calm Calm - N/A   Clear
2:22 PM 23.0 °F - 12.2 °F 63% 29.97 in 10.0 mi Calm Calm - N/A   Clear
2:42 PM 23.0 °F - 12.2 °F 63% 29.96 in 10.0 mi Calm Calm - N/A   Clear
3:02 PM 23.0 °F - 12.2 °F 63% 29.96 in 10.0 mi Calm Calm - N/A   Clear
3:22 PM 23.0 °F - 12.2 °F 63% 29.97 in 10.0 mi Calm Calm - N/A   Clear
3:42 PM 23.0 °F - 12.2 °F 63% 29.97 in 10.0 mi Calm Calm - N/A   Clear
4:02 PM 23.0 °F - 12.2 °F 63% 29.98 in 10.0 mi Calm Calm - N/A   Clear
4:22 PM 21.2 °F - 12.2 °F 68% 29.98 in 10.0 mi Calm Calm - N/A   Clear
4:42 PM 21.2 °F - 12.2 °F 68% 29.99 in 10.0 mi Calm Calm - N/A   Clear
5:02 PM 19.4 °F 14.3 °F 10.4 °F 68% 29.99 in 10.0 mi West 3.5 mph - N/A   Clear
5:22 PM 19.4 °F 14.3 °F 10.4 °F 68% 29.99 in 10.0 mi NW 3.5 mph - N/A   Clear
5:41 PM 19.4 °F 11.5 °F 12.2 °F 74% 30.00 in 10.0 mi NNW 5.8 mph - N/A   Clear
6:02 PM 19.4 °F 9.5 °F 12.2 °F 74% 30.01 in 10.0 mi NNW 8.1 mph - N/A   Clear
6:22 PM 19.4 °F 11.5 °F 12.2 °F 74% 30.01 in 10.0 mi NNW 5.8 mph - N/A   Clear
6:42 PM 19.4 °F 12.8 °F 12.2 °F 74% 30.02 in 10.0 mi NNW 4.6 mph - N/A   Clear
7:02 PM 19.4 °F 12.8 °F 12.2 °F 74% 30.02 in 10.0 mi NW 4.6 mph - N/A   Clear
7:22 PM 17.6 °F 9.3 °F 12.2 °F 79% 30.02 in 10.0 mi NNW 5.8 mph - N/A   Clear
7:42 PM 17.6 °F 8.2 °F 12.2 °F 79% 30.01 in 10.0 mi NNW 6.9 mph - N/A   Scattered Clouds
8:02 PM 19.4 °F 12.8 °F 14.0 °F 80% 30.02 in 10.0 mi North 4.6 mph - N/A   Overcast
8:22 PM 19.4 °F 7.9 °F 14.0 °F 80% 30.03 in 10.0 mi NNW 10.4 mph 17.3 mph N/A   Overcast
8:42 PM 17.6 °F 7.3 °F 14.0 °F 86% 30.03 in 10.0 mi NNW 8.1 mph 17.3 mph N/A   Overcast
9:02 PM 17.6 °F 10.7 °F 14.0 °F 86% 30.04 in 10.0 mi North 4.6 mph - N/A   Overcast
9:22 PM 17.6 °F 8.2 °F 12.2 °F 79% 30.05 in 10.0 mi North 6.9 mph - N/A   Overcast
9:42 PM 17.6 °F 5.0 °F 12.2 °F 79% 30.05 in 10.0 mi North 11.5 mph 20.7 mph N/A   Overcast
10:02 PM 17.6 °F 5.0 °F 12.2 °F 79% 30.06 in 10.0 mi North 11.5 mph 21.9 mph N/A   Overcast
10:22 PM 17.6 °F 5.7 °F 12.2 °F 79% 30.07 in 10.0 mi North 10.4 mph 18.4 mph N/A   Overcast
10:41 PM 15.8 °F 5.1 °F 10.4 °F 79% 30.07 in 10.0 mi North 8.1 mph - N/A   Overcast
11:02 PM 14.0 °F 2.9 °F 8.6 °F 79% 30.07 in 10.0 mi North 8.1 mph - N/A   Overcast
11:22 PM 14.0 °F 5.1 °F 8.6 °F 79% 30.07 in 10.0 mi North 5.8 mph - N/A   Overcast
11:42 PM 14.0 °F 2.9 °F 8.6 °F 79% 30.07 in 10.0 mi North 8.1 mph - N/A   Overcast